Location: Dammartin
(48.9032°N, 1.6195°E)
Time: 13:47:56
(UTC+00:00)

Tiangong - Visible Passes

Search period start: 09 June 2023 00:00
Search period end: 19 June 2023 00:00
Orbit: 386 x 390 km, 41.5° (Epoch: 09 June)

Date Brightness Start Highest point End Pass type
(mag) Time Alt. Az. Time Alt. Az. Time Alt. Az.
09 Jun 0.4 01:11:33 11° SE 01:11:33 11° SE 01:11:47 10° ESE visible
09 Jun -0.7 02:43:48 12° SW 02:45:54 21° S 02:48:25 10° SE visible
10 Jun -0.6 01:47:53 21° SSE 01:47:53 21° SSE 01:49:58 10° SE visible
11 Jun -0.6 02:24:23 17° SSW 02:25:17 19° S 02:27:38 10° SE visible
12 Jun 0.3 01:28:53 12° SE 01:28:53 12° SE 01:29:14 10° SE visible
12 Jun 0.0 03:01:41 10° SW 03:02:57 12° SSW 03:04:15 10° S visible
13 Jun 0.2 02:06:10 11° SSE 02:06:10 11° SSE 02:06:26 10° SSE visible
15 Jun 0.0 21:30:23 10° SSW 21:31:09 13° S 21:31:09 13° S visible
16 Jun -0.1 22:07:17 10° SW 22:08:16 15° SSW 22:08:16 15° SSW visible
17 Jun -0.5 21:08:42 10° SW 21:10:58 18° SSE 21:12:30 14° SE visible
18 Jun -0.8 21:45:55 10° SW 21:48:25 21° S 21:48:40 21° S visible
